Regional Weather Roundup
Issued by NWS

Home | Current Version | Previous Version | Text Only | Print | Product List | Glossary Off
Versions: 1 2 3 4 5 6 7 8 9 10 11 12 13 14 15 16 17 18 19 20 21 22 23 24 25 26 27 28 29 30 31 32 33 34 35 36 37 38 39 40 41 42 43 44 45 46 47 48 49 50

000
ASUS43 KFSD 230510
RWRSD

WEATHER ROUNDUP FOR SOUTH DAKOTA
NATIONAL WEATHER SERVICE SIOUX FALLS SD
1200 AM CDT WED AUG 23 2017

NOTE: "FAIR" INDICATES FEW OR NO CLOUDS BELOW 12,000 FEET WITH NO
SIGNIFICANT WEATHER AND/OR OBSTRUCTIONS TO VISIBILITY.


SDZ001>005-009-010-012>017-230600-
NORTHWEST AND NORTH CENTRAL SOUTH DAKOTA

CITY           SKY/WX    TMP DP  RH WIND       PRES   REMARKS
BUFFALO          N/A     65  46  50 E12       30.06S
FAITH            N/A     65  49  56 SE15      30.12S
MOBRIDGE       CLEAR     62  48  60 E9        30.12R
$$

SDZ012>016-024>037-041>051-057-063-072>074-230600-
SOUTHWEST AND SOUTH CENTRAL SOUTH DAKOTA

CITY           SKY/WX    TMP DP  RH WIND       PRES   REMARKS
RAPID CTY ARPT CLEAR     62  45  53 E6        30.10S
PIERRE         CLEAR     60  50  69 E7        30.12R
CUSTER         CLEAR     58  46  64 NW3       30.24S
ELLSWORTH AFB  CLEAR     64  45  49 SE8       30.10S
PHILIP         CLEAR     63  50  62 E10       30.09F
PINE RIDGE     CLEAR     72  49  44 S17G25    30.12S
SPEARFISH      FAIR      64  45  48 E10       30.13S
WINNER         FAIR      62  54  74 SE8       30.15R
$$

SDZ004>011-016>023-039-040-230600-
NORTHEAST SOUTH DAKOTA

CITY           SKY/WX    TMP DP  RH WIND       PRES   REMARKS
ABERDEEN       CLEAR     53  50  89 CALM      30.13S
WATERTOWN      CLEAR     53  48  83 CALM      30.14S
BROOKINGS      CLEAR     56  51  84 CALM      30.16R
SISSETON         N/A     55  48  77 CALM      30.10F
$$

SDZ017-020-022-023-036>040-048>070-230600-
SOUTHEAST SOUTH DAKOTA

CITY           SKY/WX    TMP DP  RH WIND       PRES   REMARKS
SIOUX FALLS    CLEAR     58  54  86 CALM      30.16R
HURON          CLEAR     58  55  90 E3        30.14R
CHAMBERLAIN    CLEAR     62  54  74 E5        30.15R
MITCHELL       CLEAR     58  51  78 S3        30.15S
YANKTON        CLEAR     60  54  80 CALM      30.16R
$$

ABBREVIATIONS USED IN REMARKS
   TC - TEMPERATURE IN CELSIUS
  WCI - WIND CHILL INDEX
   HX - HEAT INDEX
  VSB - VISIBILITY





USA.gov is the U.S. government's official web portal to all federal, state and local government web resources and services.